Hourly Data Report for April 06, 2018

KUGAARUK CLIMATE
NUNAVUT
Current Station Operator: ECCC - MSC

68°32'15.060" N
89°47'47.020" W
15.80 m
2303094
71407
NBB

Download Data

Hourly Data (April 2018)
Hourly Data Report for April 6, 2018
TIME
LST
Temp Definition
°C
Dew Point Definition
°C
Rel Hum Definition
%
Precip. Amount Definition
mm

Wind Dir Definition
10's deg

Wind Spd Definition
km/h
Visibility Definition
km
Stn Press Definition
kPa
Hmdx Definition


Wind Chill Definition


Weather Definition


00:00 -24.6 -27.7 75 0.0 29 9   101.96   -32 LegendNANA
01:00 -25.4 -28.6 75 0.0 27 10   101.94   -34 LegendNANA
02:00 -25.8 -28.7 77 0.0 25 12   101.94   -35 LegendNANA
03:00 -27.0 -30.0 76 0.0 24 14   101.96   -37 LegendNANA
04:00 -26.7 -29.7 76 0.0 25 12   101.94   -36 LegendNANA
05:00 -26.3 -29.7 73 0.2 25 11   101.92   -35 LegendNANA
06:00 -26.4 -30.7 67 0.0 23 10   101.91   -35 LegendNANA
07:00 -26.3 -30.5 68 0.0 23 14   101.90   -36 LegendNANA
08:00 -25.3 -29.8 66 0.0 23 15   101.85   -36 LegendNANA
09:00 -24.4 -29.1 65 0.0 24 15   101.84   -35 LegendNANA
10:00 -22.3 -28.8 56 0.0 30 8   101.81   -29 LegendNANA
11:00 -22.0 -28.5 56 0.0 29 10   101.81   -30 LegendNANA
12:00 -21.4 -27.6 57 0.0 31 10   101.80   -29 LegendNANA
13:00 -21.4 -27.0 61 0.0 32 16   101.78   -31 LegendNANA
14:00 -21.3 -26.8 61 0.0 32 13   101.77   -30 LegendNANA
15:00 -21.4 -26.9 61 0.0 31 15   101.77   -31 LegendNANA
16:00 -21.4 -27.0 60 0.0 32 11   101.76   -29 LegendNANA
17:00 -21.6 -27.1 61 0.0 31 6   101.74   -27 LegendNANA
18:00 -25.0 -28.6 72 0.0 24 18   101.70   -36 LegendNANA
19:00 -26.7 -30.7 69 0.0 24 20   101.64   -39 LegendNANA
20:00 -26.9 -30.6 71 0.0 24 21   101.61   -39 LegendNANA
21:00 -27.9 -31.7 70 0.0 24 22   101.56   -41 LegendNANA
22:00 -28.2 -31.7 72 0.0 25 22   101.53   -41 LegendNANA
23:00 -28.5 -31.9 73 0.0 24 30   101.47   -44 LegendNANA

Notes on Data Quality.

Legend

  • E = Estimated
  • M = Missing
  • NA = Not Available*
  • [empty] = Indicates an unobserved value
Date modified: